[[{"header":{"parameterUnit":"m.s-1","parameterCategory":1,"la1":30.2991,"la2":30.254,"lo1":-89.0895,"lo2":-89.0444,"dy":0.0017,"dx":0.0017,"nx":28,"ny":28,"refTime":"2024-05-03T03:00:00:Z","depth":0,"parameterNumber":2,"parameterNumberName":"U-component_of_WINDS"},"data":[0,0,0,0,0,0,0,0,0,0,0,0,0,0,0,0,0,0,0,0,0,0,0,0,0,0,0,0,0,0,0,0,0,0,0,0,0,0,0,0,0,0,0,0,0,0,0,0,0,0,0,0,0,0,0,0,0,0,-0.7106,-0.7105,0,-0.7087,-0.7087,-0.7087,-0.7048,-0.7048,-0.7047,-0.7046,-0.7029,-0.7029,-0.7029,0,0,0,0,0,0,0,0,0,0,0,0,0,-0.7109,-0.711,-0.7106,-0.7105,-0.7105,-0.7087,-0.7087,-0.7087,-0.7048,-0.7048,-0.7047,-0.7046,-0.7029,-0.7029,-0.7029,0,0,0,0,0,0,0,0,0,0,0,0,0,-0.7101,-0.711,-0.7106,-0.7084,-0.7082,-0.7087,-0.7087,-0.7087,-0.7049,-0.7048,-0.7046,-0.7045,-0.7029,-0.7029,-0.7029,-0.7055,0,0,-0.7031,-0.7031,0,0,0,0,0,0,0,0,-0.7102,-0.7101,-0.7087,-0.7085,-0.7083,-0.7069,-0.7082,-0.7076,-0.7049,-0.7061,-0.7046,-0.7045,-0.7043,-0.7042,-0.7041,-0.7054,-0.7054,-0.7031,-0.7031,-0.7031,-0.7031,0,0,0,0,0,0,0,-0.7102,-0.7102,-0.7098,-0.7087,-0.7085,-0.7076,-0.7073,-0.7081,-0.7059,-0.706,-0.7057,-0.7056,-0.7042,-0.7041,-0.7041,-0.7053,-0.7031,-0.7031,-0.7031,-0.7031,-0.7087,-0.7088,0,0,0,0,0,0,-0.7106,-0.7102,-0.7099,-0.7098,-0.709,-0.7077,-0.7074,-0.7075,-0.7059,-0.7055,-0.7057,-0.7054,-0.7041,-0.704,-0.704,-0.707,-0.7031,-0.7031,-0.7032,-0.7086,-0.7088,-0.7089,0,0,0,0,0,0,-0.7106,-0.7106,-0.71,-0.7099,-0.7098,-0.7078,-0.7079,-0.7075,-0.7074,-0.7056,-0.7052,-0.706,-0.704,-0.7039,-0.7052,-0.7068,-0.7032,-0.7032,-0.7085,-0.7087,-0.7088,-0.7129,0,0,0,0,0,0,-0.7106,-0.7106,-0.7115,-0.71,-0.7098,-0.7111,-0.708,-0.7075,-0.7075,-0.7071,-0.7058,-0.7055,-0.7039,-0.7051,-0.7052,-0.7068,-0.7032,-0.7083,-0.7085,-0.7088,-0.7126,-0.7132,-0.7137,0,0,0,0,0,-0.7107,-0.7128,-0.7116,-0.7116,-0.7109,-0.7112,-0.7111,-0.7092,-0.7076,-0.7086,-0.7074,-0.7055,-0.7067,-0.7053,-0.7053,-0.707,-0.7082,-0.7085,-0.7087,-0.7124,-0.7131,-0.7137,0,0,0,0,0,0,-0.7146,-0.7125,-0.7112,-0.7129,-0.7123,-0.7106,-0.7117,-0.7101,-0.7099,-0.7096,-0.7073,-0.707,-0.7086,-0.7079,-0.7064,-0.7095,-0.7071,-0.7074,-0.7098,-0.7105,-0.7111,-0.7112,-0.7033,0,0,0,0,0,-0.7157,-0.7161,-0.7142,-0.7159,-0.7156,-0.7137,-0.7138,-0.7124,-0.7117,-0.7114,-0.7104,-0.7098,-0.71,-0.7102,-0.7103,-0.7125,-0.7122,-0.7137,-0.7142,-0.7147,-0.715,-0.7161,-0.7168,-0.7098,-0.7098,-0.7098,0,0,-0.7179,-0.7168,-0.7172,-0.7167,-0.716,-0.7165,-0.7135,-0.7142,-0.7146,-0.7116,-0.7126,-0.7119,-0.7111,-0.7128,-0.7135,-0.7123,-0.7168,-0.715,-0.7154,-0.7155,-0.7165,-0.7172,-0.7177,-0.71,-0.71,-0.7099,0,0,-0.7222,-0.7213,-0.7227,-0.7221,-0.7211,-0.7199,-0.7202,-0.7188,-0.7181,-0.7192,-0.7169,-0.7174,-0.7178,-0.7173,-0.7172,-0.7214,-0.7197,-0.7215,-0.7244,-0.7255,-0.7261,-0.7266,-0.7281,-0.7287,-0.7218,-0.7218,-0.7218,0,-0.725,-0.7257,-0.7236,-0.7244,-0.7243,-0.7215,-0.7228,-0.7224,-0.7216,-0.7216,-0.7202,-0.7207,-0.72,-0.7216,-0.7226,-0.7225,-0.7229,-0.7216,-0.7262,-0.7266,-0.727,-0.7285,-0.7291,-0.722,-0.722,-0.722,-0.7219,0,-0.7293,-0.7298,-0.731,-0.7302,-0.7302,-0.7313,-0.7294,-0.7297,-0.7283,-0.7272,-0.7283,-0.7274,-0.7273,-0.7275,-0.7262,-0.729,-0.7283,-0.7266,-0.7242,-0.728,-0.7293,-0.7298,-0.7223,-0.7223,-0.7222,-0.7221,0,0,-0.736,-0.7341,-0.7346,-0.7342,-0.733,-0.7334,-0.7344,-0.7342,-0.7345,-0.7341,-0.7349,-0.7353,-0.7338,-0.7336,-0.7322,-0.7332,-0.7366,-0.7314,-0.7313,-0.7324,-0.7397,-0.7411,-0.7417,-0.7355,-0.7356,-0.7357,-0.7398,0,-0.7401,-0.7416,-0.7398,-0.7417,-0.7422,-0.7396,-0.7405,-0.7399,-0.7389,-0.7392,-0.7381,-0.7385,-0.7363,-0.7362,-0.7371,-0.736,-0.7381,-0.7357,-0.7363,-0.7364,-0.7366,-0.7424,-0.7438,-0.7478,-0.7403,-0.7404,-0.7405,0,-0.745,-0.7448,-0.7468,-0.7455,-0.7456,-0.7464,-0.7462,-0.7465,-0.7458,-0.745,-0.7448,-0.7431,-0.7441,-0.7417,-0.743,-0.7415,-0.7416,-0.7411,-0.7412,-0.7413,-0.7387,-0.7427,-0.749,-0.7496,-0.7413,-0.7412,-0.7411,0,-0.7498,-0.75,-0.7512,-0.751,-0.7495,-0.7501,-0.7495,-0.7487,-0.7488,-0.7485,-0.7486,-0.7485,-0.7485,-0.7485,-0.7469,-0.7453,-0.7484,-0.7459,-0.7479,-0.7479,-0.7487,-0.7487,-0.7552,-0.7487,-0.7487,-0.7487,-0.7487,0,-0.7546,-0.7559,-0.7534,-0.7541,-0.7556,-0.7535,-0.755,-0.7541,-0.7534,-0.754,-0.7518,-0.7524,-0.7502,-0.7506,-0.7493,-0.7507,-0.7507,-0.7501,-0.7498,-0.7503,-0.7504,-0.7504,-0.7501,-0.7488,-0.7488,-0.7488,-0.7488,0,-0.7602,-0.7585,-0.7597,-0.7582,-0.7578,-0.759,-0.7577,-0.7584,-0.7573,-0.7581,-0.7581,-0.7564,-0.7568,-0.7551,-0.7552,-0.7544,-0.7564,-0.7556,-0.7566,-0.7564,-0.7585,-0.7583,-0.7653,-0.7661,-0.759,-0.7591,-0.7592,0,-0.7634,-0.7644,-0.7629,-0.7632,-0.7627,-0.7631,-0.7631,-0.7611,-0.7612,-0.7605,-0.7613,-0.7615,-0.7615,-0.7623,-0.761,-0.7611,-0.7603,-0.7627,-0.7603,-0.7609,-0.7604,-0.7604,-0.7606,-0.7633,-0.7634,-0.7634,-0.7635,0,-0.7692,-0.7684,-0.7685,-0.7683,-0.7684,-0.7682,-0.7678,-0.7682,-0.766,-0.7662,-0.7666,-0.7666,-0.7667,-0.767,-0.7668,-0.7663,-0.7646,-0.7643,-0.7647,-0.7654,-0.766,-0.7657,-0.7581,-0.7641,-0.7641,-0.764,-0.764,-0.764,-0.7738,-0.7746,-0.7737,-0.7739,-0.7734,-0.7731,-0.7737,-0.7726,-0.7729,-0.7728,-0.7715,-0.7721,-0.7715,-0.7711,-0.7707,-0.7712,-0.77,-0.7707,-0.7709,-0.7711,-0.7715,-0.7659,-0.7711,-0.7711,-0.7711,-0.7711,-0.7711,0,-0.7796,-0.7789,-0.7791,-0.7786,-0.7788,-0.7771,-0.7767,-0.777,-0.7775,-0.777,-0.7771,-0.7775,-0.7777,-0.7765,-0.7766,-0.7772,-0.7765,-0.7773,-0.7773,-0.7772,-0.7724,-0.7721,-0.778,-0.778,-0.778,-0.778,-0.778,-0.778,-0.7826,-0.7839,-0.7829,-0.7839,-0.7832,-0.7837,-0.7836,-0.7834,-0.7829,-0.7835,-0.7837,-0.7829,-0.7821,-0.7821,-0.7823,-0.7819,-0.7821,-0.7832,-0.7826,-0.7782,-0.7775,-0.7769,-0.7765,-0.7833,-0.7833,-0.7874,-0.7874,-0.7874]},{"header":{"parameterUnit":"m.s-1","parameterCategory":1,"la1":30.2991,"la2":30.254,"lo1":-89.0895,"lo2":-89.0444,"dy":0.0017,"dx":0.0017,"nx":28,"ny":28,"refTime":"2024-05-03T03:00:00:Z","depth":0,"parameterNumber":3,"parameterNumberName":"V-component_of_WINDS"},"data":[0,0,0,0,0,0,0,0,0,0,0,0,0,0,0,0,0,0,0,0,0,0,0,0,0,0,0,0,0,0,0,0,0,0,0,0,0,0,0,0,0,0,0,0,0,0,0,0,0,0,0,0,0,0,0,0,0,0,2.8524,2.8524,0,2.8482,2.8481,2.8481,2.8435,2.8434,2.8434,2.8433,2.8387,2.8387,2.8386,0,0,0,0,0,0,0,0,0,0,0,0,0,2.8565,2.8564,2.8524,2.8524,2.8523,2.8482,2.8481,2.848,2.8435,2.8434,2.8433,2.8433,2.8387,2.8387,2.8386,0,0,0,0,0,0,0,0,0,0,0,0,0,2.8537,2.8564,2.8524,2.8495,2.8492,2.8482,2.8481,2.848,2.8435,2.8434,2.8433,2.8432,2.8388,2.8387,2.8386,2.8399,0,0,2.8383,2.8382,0,0,0,0,0,0,0,0,2.8539,2.8536,2.85,2.8497,2.8494,2.8463,2.8478,2.8453,2.8435,2.8457,2.8433,2.8432,2.8413,2.841,2.8404,2.8397,2.8395,2.8383,2.8382,2.8382,2.8382,0,0,0,0,0,0,0,2.8541,2.8537,2.8507,2.85,2.8496,2.8484,2.8479,2.8473,2.8441,2.8455,2.8451,2.8447,2.8411,2.8405,2.8402,2.8395,2.8383,2.8382,2.8381,2.8381,2.8397,2.8398,0,0,0,0,0,0,2.8547,2.8539,2.8509,2.8506,2.8514,2.8484,2.8479,2.8474,2.8441,2.8435,2.8448,2.8445,2.8407,2.8404,2.8401,2.8414,2.8382,2.8381,2.838,2.8396,2.8397,2.8398,0,0,0,0,0,0,2.8548,2.8545,2.851,2.8522,2.8516,2.8485,2.8479,2.8473,2.8467,2.8436,2.8429,2.8448,2.8406,2.8402,2.84,2.8412,2.8381,2.838,2.8395,2.8396,2.8398,2.8442,0,0,0,0,0,0,2.8549,2.8545,2.8551,2.8522,2.8516,2.8511,2.848,2.8473,2.8466,2.8462,2.8434,2.8428,2.8405,2.8402,2.8399,2.841,2.8379,2.8394,2.8396,2.8397,2.8439,2.8445,2.8449,0,0,0,0,0,2.8551,2.8564,2.8551,2.8548,2.8522,2.8512,2.8508,2.8482,2.8467,2.8472,2.8452,2.8429,2.8412,2.8402,2.8399,2.841,2.8393,2.8395,2.8397,2.8437,2.8444,2.8449,0,0,0,0,0,0,2.8594,2.856,2.8545,2.8549,2.8534,2.8504,2.8509,2.849,2.8478,2.8474,2.8442,2.8436,2.8438,2.8423,2.8414,2.8421,2.8399,2.8401,2.843,2.8436,2.8441,2.8444,2.8378,0,0,0,0,0,2.8604,2.86,2.857,2.8577,2.857,2.8541,2.8536,2.8517,2.85,2.8493,2.8472,2.8455,2.8446,2.844,2.843,2.8437,2.843,2.8443,2.8448,2.8453,2.8454,2.8457,2.8462,2.8406,2.8406,2.8406,0,0,2.8625,2.8605,2.8604,2.8585,2.8571,2.8566,2.8536,2.8532,2.8528,2.8492,2.8489,2.8474,2.8453,2.8456,2.8456,2.8444,2.8468,2.8455,2.8459,2.8458,2.8459,2.8465,2.847,2.8407,2.8407,2.8407,0,0,2.8659,2.8645,2.8649,2.8636,2.8615,2.8596,2.8597,2.8571,2.8559,2.8556,2.8529,2.8524,2.8508,2.8495,2.8486,2.8517,2.8496,2.8515,2.8541,2.8544,2.8548,2.8552,2.8562,2.8567,2.8516,2.8516,2.8517,0,2.8687,2.868,2.8653,2.8652,2.8644,2.8611,2.8615,2.8603,2.858,2.8575,2.8563,2.8543,2.8527,2.8526,2.8534,2.8528,2.8527,2.8517,2.855,2.8553,2.8556,2.8566,2.857,2.8519,2.8519,2.8518,2.8518,0,2.8715,2.8711,2.8716,2.8696,2.8688,2.8689,2.8662,2.8658,2.8641,2.8623,2.862,2.86,2.8585,2.8584,2.8566,2.858,2.8574,2.8556,2.8533,2.8564,2.8573,2.8577,2.8522,2.8521,2.8521,2.852,0,0,2.8774,2.874,2.8742,2.8733,2.8708,2.8704,2.8704,2.869,2.8687,2.8673,2.8671,2.866,2.8643,2.8633,2.8614,2.8616,2.8642,2.8598,2.8597,2.8607,2.8656,2.867,2.8674,2.8628,2.8629,2.863,2.8658,0,2.8804,2.8802,2.8779,2.8783,2.8778,2.8748,2.8748,2.8733,2.8717,2.871,2.8692,2.8684,2.8663,2.8657,2.8658,2.8639,2.8652,2.8636,2.8626,2.8626,2.8631,2.8679,2.8692,2.872,2.8661,2.8662,2.8662,0,2.8839,2.8827,2.8832,2.8808,2.8805,2.8805,2.8791,2.8785,2.8767,2.8755,2.8745,2.8723,2.8721,2.87,2.8696,2.8686,2.8681,2.8671,2.8671,2.8668,2.8645,2.8677,2.8728,2.8732,2.8667,2.8667,2.8667,0,2.8881,2.8867,2.8867,2.886,2.8832,2.8833,2.8822,2.8803,2.8796,2.8784,2.8779,2.8767,2.8759,2.875,2.8725,2.8713,2.8724,2.8701,2.8713,2.8714,2.8716,2.8716,2.8767,2.8714,2.8714,2.8714,2.8714,0,2.8916,2.892,2.8886,2.8886,2.889,2.8863,2.8866,2.8852,2.8836,2.8832,2.8806,2.8803,2.8771,2.8765,2.8746,2.8745,2.8742,2.8732,2.8726,2.8734,2.8735,2.8729,2.8726,2.8715,2.8715,2.8715,2.8714,0,2.8963,2.8941,2.894,2.8914,2.8908,2.8911,2.8889,2.8888,2.8871,2.8867,2.8864,2.8837,2.8828,2.8803,2.8788,2.8775,2.878,2.877,2.8786,2.8782,2.8796,2.8795,2.8844,2.8849,2.8794,2.8794,2.8795,0,2.8987,2.8989,2.8964,2.8961,2.895,2.8945,2.8938,2.8912,2.8906,2.8887,2.8888,2.8877,2.8867,2.8855,2.8833,2.8821,2.8811,2.8829,2.8809,2.8816,2.881,2.881,2.881,2.8833,2.8834,2.8834,2.8835,0,2.9031,2.902,2.9012,2.9001,2.8994,2.8984,2.8971,2.897,2.894,2.8935,2.8926,2.8919,2.8904,2.8893,2.8878,2.8866,2.8845,2.8842,2.8844,2.885,2.8859,2.8854,2.8797,2.884,2.884,2.8839,2.8839,2.8839,2.9066,2.9067,2.905,2.9042,2.9031,2.902,2.9018,2.9001,2.8994,2.898,2.8965,2.8958,2.894,2.8918,2.8907,2.8901,2.889,2.8893,2.8894,2.8895,2.8898,2.8861,2.8898,2.8898,2.8898,2.8898,2.8897,0,2.9109,2.9096,2.909,2.9074,2.9068,2.9051,2.9037,2.9033,2.9027,2.9013,2.9004,2.8994,2.8984,2.8962,2.895,2.895,2.894,2.8947,2.8946,2.8944,2.8909,2.8908,2.8955,2.8955,2.8955,2.8955,2.8955,2.8955,2.913,2.913,2.9117,2.9112,2.9099,2.9093,2.9086,2.9076,2.9065,2.9056,2.9048,2.9034,2.9017,2.9003,2.8993,2.8987,2.8983,2.8994,2.8985,2.8952,2.8946,2.8941,2.894,2.8993,2.8994,2.902,2.902,2.9021]}]]